This demonstration page uses our WeatherBlox Daily Observations layout. Learn more.

Left ArrowRight Arrow

Hourly Observations for June 23, 2021

Temp ( °F °C ) Dew Point ( °F °C ) Humidity (%) Winds ( mph kmh ) Pressure ( in mb ) Visibility ( mi km ) Precip ( " mm )
12:59 am 00:59 Mostly Cloudy 71 21.7 26 -3.3 19 19 NNE 12 19 30.04 1017 10 16 0.00 0.00
1:59 am 01:59 Mostly Cloudy 69 20.6 28 -2.2 22 22 N 8 13 30.05 1018 10 16 0.00 0.00
2:59 am 02:59 Mostly Cloudy 69 20.6 31 -0.6 24 24 N 7 11 30.06 1018 10 16 0.00 0.00
3:59 am 03:59 Mostly Cloudy 68 20 30 -1.1 24 24 VRB 7 11 30.07 1018 10 16 0.00 0.00
4:59 am 04:59 Partly Cloudy 68 20 30 -1.1 24 24 ENE 8 13 30.09 1019 10 16 0.00 0.00
5:59 am 05:59 Mostly Cloudy 67 19.4 31 -0.6 26 26 NE 10 17 30.13 1020 10 16 0.00 0.00
6:59 am 06:59 Mostly Cloudy 68 20 31 -0.6 25 25 NE 10 17 30.14 1021 10 16 0.00 0.00
7:59 am 07:59 Mostly Sunny 70 21.1 31 -0.6 23 23 ENE 12 19 30.16 1022 10 16 0.00 0.00
8:59 am 08:59 Mostly Sunny 71 21.7 31 -0.6 23 23 NE 14 22 30.18 1022 10 16 0.00 0.00
9:59 am 09:59 Mostly Sunny 72 22.2 31 -0.6 22 22 NE 14 22 30.19 1023 10 16 0.00 0.00
10:59 am 10:59 Mostly Sunny 73 22.8 32 0 22 22 NNE 13 20 30.22 1023 10 16 0.00 0.00
11:59 am 11:59 Mostly Sunny 74 23.3 31 -0.6 20 20 NNE 13 20 30.24 1024 10 16 0.00 0.00
12:59 pm 12:59 Sunny 73 22.8 30 -1.1 20 20 E 13 20 30.25 1024 10 16 0.00 0.00
1:59 pm 13:59 Partly Cloudy 73 22.8 30 -1.1 20 20 ENE 10 17 30.25 1024 10 16 0.00 0.00
2:59 pm 14:59 Sunny 72 22.2 30 -1.1 21 21 ESE 9 15 30.25 1024 10 16 0.00 0.00
3:59 pm 15:59 Mostly Sunny 73 22.8 31 -0.6 21 21 ENE 10 17 30.24 1024 10 16 0.00 0.00
4:59 pm 16:59 Mostly Sunny 73 22.8 54 12.2 51 51 ENE 7 11 30.25 1024 10 16 0.00 0.00
5:59 pm 17:59 Mostly Sunny 72 22.2 55 12.8 55 55 E 9 15 30.25 1025 10 16 0.00 0.00
6:59 pm 18:59 Mostly Sunny 71 21.7 54 12.2 55 55 E 10 17 30.26 1025 10 16 0.00 0.00
7:59 pm 19:59 Mostly Sunny 70 21.1 54 12.2 57 57 E 10 17 30.27 1025 10 16 0.00 0.00
8:59 pm 20:59 Mostly Clear 68 20 53 11.7 59 59 E 7 11 30.28 1026 10 16 0.00 0.00
9:59 pm 21:59 Mostly Clear 65 18.3 52 11.1 63 63 ESE 3 6 30.30 1026 10 16 0.00 0.00
10:59 pm 22:59 Clear 62 16.7 28 -2.2 28 28 Calm 30.30 1026 10 16 0.00 0.00
11:59 pm 23:59 Clear 61 16.1 51 10.6 70 70 E 3 6 30.31 1026 10 16 0.00 0.00

Powered by AerisWeather